EW7912 Weather Reports


Display with metric or nautical units.
time (UTC)temp
F
wind
direction
speed
MPH
gust
MPH
rain 1hr
in
rain 24hr
in
rain mn
in
humidity
%
barometer
mb
20220126053050 44 105 0.0 2.0 0.00 0.00 0.00 78 1024.5
20220126052543 44 105 0.0 3.0 0.00 0.00 0.00 77 1024.4
20220126052038 44 104 1.0 6.0 0.00 0.00 0.00 77 1024.4
20220126051532 45 105 1.0 6.0 0.00 0.00 0.00 77 1024.3
20220126051026 45 105 1.0 4.0 0.00 0.00 0.00 78 1024.3
20220126050521 45 104 1.0 3.0 0.00 0.00 0.00 78 1024.2
20220126050014 45 105 1.0 4.0 0.00 0.00 0.00 78 1024.1
20220126045508 45 103 1.0 4.0 0.00 0.00 0.00 78 1024.0
20220126045002 45 104 0.0 2.0 0.00 0.00 0.00 78 1023.8
20220126044456 45 103 1.0 3.0 0.00 0.00 0.00 78 1024.0
20220126043950 45 105 1.0 3.0 0.00 0.01 0.00 77 1023.9
20220126043443 45 104 1.0 3.0 0.00 0.01 0.00 78 1023.8
20220126042937 45 105 1.0 3.0 0.00 0.01 0.00 78 1023.7
20220126042445 46 105 0.0 3.0 0.00 0.01 0.00 79 1023.7
20220126041925 46 103 0.0 3.0 0.00 0.02 0.00 79 1023.7
20220126041420 46 104 0.0 2.0 0.00 0.02 0.00 80 1023.6
20220126040914 46 105 0.0 2.0 0.00 0.02 0.00 80 1023.5
20220126040408 46 105 0.0 2.0 0.00 0.02 0.00 81 1023.4
20220126035901 45 105 0.0 2.0 0.00 0.02 0.00 82 1023.4
20220126035355 45 105 0.0 2.0 0.00 0.03 0.00 84 1023.2
20220126034851 44 103 0.0 2.0 0.00 0.04 0.00 86 1023.1
20220126034344 44 105 0.0 2.0 0.00 0.05 0.00 89 1023.1
20220126033837 43 105 0.0 1.0 0.00 0.06 0.00 90 1023.1
20220126033332 43 105 0.0 2.0 0.00 0.08 0.00 91 1023.1
20220126032825 43 105 0.0 2.0 0.00 0.09 0.00 92 1022.9
20220126032320 42 104 0.0 1.0 0.00 0.12 0.00 93 1022.9
20220126031814 42 105 0.0 1.0 0.00 0.13 0.00 92 1022.9
20220126031308 42 105 0.0 0.0 0.00 0.14 0.00 92 1022.8
20220126030802 42 105 0.0 0.0 0.00 0.15 0.00 92 1022.8
20220126030256 42 105 0.0 1.0 0.00 0.16 0.00 92 1022.7
20220126025750 42 105 0.0 1.0 0.00 0.16 0.00 92 1022.6
20220126025243 41 104 0.0 0.0 0.00 0.16 0.00 92 1022.5
20220126024738 42 103 0.0 0.0 0.00 0.16 0.00 92 1022.3
20220126024233 42 103 0.0 0.0 0.00 0.16 0.00 92 1022.2
20220126023725 42 104 0.0 0.0 0.00 0.16 0.00 92 1022.1
20220126023220 42 105 0.0 0.0 0.00 0.17 0.00 91 1022.1
20220126022714 42 103 0.0 0.0 0.00 0.17 0.00 91 1022.1
20220126022208 42 103 0.0 0.0 0.00 0.17 0.00 91 1022.1
20220126021702 43 105 0.0 0.0 0.00 0.17 0.00 91 1022.1
20220126021156 43 105 0.0 0.0 0.00 0.17 0.00 91 1022.0
20220126020649 43 104 0.0 0.0 0.00 0.17 0.00 91 1021.9
20220126020144 43 103 0.0 0.0 0.00 0.17 0.00 90 1021.8
20220126015637 43 105 0.0 0.0 0.00 0.17 0.00 90 1021.8
20220126015135 44 105 0.0 0.0 0.00 0.17 0.00 90 1021.6
20220126014635 44 103 0.0 0.0 0.00 0.17 0.00 90 1021.4
20220126014137 44 104 0.0 0.0 0.00 0.17 0.00 89 1021.4
20220126013635 44 103 0.0 0.0 0.00 0.17 0.00 89 1021.3
20220126013135 44 104 0.0 0.0 0.00 0.17 0.00 89 1021.3
20220126012635 44 105 0.0 0.0 0.00 0.17 0.00 89 1021.2
20220126012136 45 103 0.0 0.0 0.00 0.17 0.00 88 1021.0
20220126011636 45 103 0.0 0.0 0.00 0.17 0.00 88 1021.1
20220126011133 45 104 0.0 0.0 0.00 0.17 0.00 88 1021.0
20220126010634 46 105 0.0 0.0 0.00 0.17 0.00 88 1021.1
20220126010134 46 105 0.0 0.0 0.00 0.17 0.00 87 1021.1
20220126005633 46 104 0.0 0.0 0.00 0.17 0.00 84 1021.0
20220126005134 46 103 0.0 0.0 0.00 0.18 0.00 84 1020.9
20220126004634 46 105 0.0 0.0 0.00 0.18 0.00 84 1020.7
20220126004130 47 103 0.0 0.0 0.00 0.19 0.00 83 1020.7
20220126003630 47 105 0.0 0.0 0.00 0.19 0.00 83 1020.6
20220126003129 48 103 0.0 0.0 0.00 0.20 0.00 82 1020.5
20220126002629 48 105 0.0 0.0 0.00 0.22 0.00 82 1020.3
20220126002129 49 103 0.0 0.0 0.00 0.23 0.00 81 1020.2
20220126001630 49 103 0.0 0.0 0.00 0.24 0.00 81 1020.2
20220126001130 50 103 0.0 0.0 0.00 0.26 0.00 79 1020.0
20220126000629 50 103 0.0 0.0 0.00 0.26 0.00 78 1020.0
20220126000130 51 104 0.0 0.0 0.00 0.28 0.00 77 1020.0
20220125235630 52 104 0.0 0.0 0.00 0.29 0.00 76 1019.8
20220125235131 52 103 0.0 0.0 0.00 0.30 0.00 72 1019.8
20220125234631 53 103 0.0 0.0 0.00 0.30 0.00 71 1019.9
20220125234131 53 103 0.0 0.0 0.00 0.30 0.00 73 1019.8
20220125233631 54 103 0.0 0.0 0.00 0.31 0.00 69 1019.8
20220125233130 54 104 0.0 1.0 0.00 0.32 0.00 68 1019.8
20220125232629 55 103 0.0 3.0 0.00 0.33 0.00 67 1019.7
20220125232130 55 103 0.0 3.0 0.00 0.35 0.00 66 1019.5
20220125231629 56 104 1.0 3.0 0.00 0.35 0.00 66 1019.4
20220125231129 56 103 1.0 4.0 0.00 0.36 0.00 65 1019.4
20220125230629 56 103 1.0 4.0 0.00 0.36 0.00 65 1019.2
20220125230129 56 103 1.0 4.0 0.00 0.36 0.00 66 1019.2
20220125225629 56 103 1.0 4.0 0.00 0.37 0.00 65 1019.1
20220125225129 56 103 1.0 4.0 0.00 0.37 0.00 65 1019.1
20220125224629 57 103 1.0 4.0 0.00 0.37 0.00 65 1019.1
20220125224130 57 103 1.0 4.0 0.00 0.38 0.00 64 1018.9
20220125223627 57 103 1.0 4.0 0.00 0.39 0.00 64 1018.8
20220125223127 57 103 1.0 3.0 0.00 0.39 0.00 65 1018.7
20220125222620 57 103 1.0 3.0 0.00 0.39 0.00 65 1018.6
20220125222114 57 103 0.0 3.0 0.00 0.39 0.00 66 1018.6
20220125221609 57 103 0.0 1.0 0.00 0.40 0.00 66 1018.5
20220125221103 57 104 0.0 2.0 0.00 0.40 0.00 66 1018.4
20220125220556 58 103 1.0 4.0 0.00 0.41 0.00 66 1018.4
20220125220050 58 105 1.0 4.0 0.00 0.42 0.00 67 1018.4
20220125215545 58 103 0.0 4.0 0.00 0.43 0.00 68 1018.4
20220125215039 58 105 0.0 3.0 0.00 0.43 0.00 68 1018.2
20220125214535 58 105 0.0 1.0 0.00 0.44 0.00 68 1018.3
20220125214027 58 105 0.0 3.0 0.00 0.44 0.00 69 1018.2
20220125213523 57 103 1.0 6.0 0.00 0.45 0.00 70 1018.2
20220125213019 57 103 1.0 6.0 0.00 0.46 0.00 70 1018.2
20220125212519 57 105 0.0 4.0 0.00 0.46 0.00 69 1018.3
20220125212019 57 103 0.0 3.0 0.00 0.47 0.00 71 1018.3
20220125211519 57 103 0.0 3.0 0.00 0.48 0.00 70 1018.3
20220125211017 57 103 0.0 3.0 0.00 0.48 0.00 71 1018.3
20220125210517 57 104 0.0 3.0 0.00 0.48 0.00 72 1018.4
20220125210017 56 103 1.0 3.0 0.00 0.49 0.00 70 1018.4
20220125205521 57 105 1.0 3.0 0.00 0.49 0.00 71 1018.3
20220125205018 57 105 0.0 3.0 0.00 0.49 0.00 72 1018.2
20220125204515 56 105 0.0 3.0 0.00 0.49 0.00 74 1018.3
20220125204013 56 103 1.0 7.0 0.00 0.49 0.00 72 1018.3
20220125203513 56 103 1.0 7.0 0.00 0.50 0.00 73 1018.3
20220125203013 56 105 0.0 4.0 0.00 0.50 0.00 73 1018.3
20220125202514 55 103 0.0 2.0 0.00 0.50 0.00 75 1018.4
20220125202013 55 104 0.0 3.0 0.00 0.50 0.00 75 1018.4
20220125201514 55 103 1.0 3.0 0.00 0.50 0.00 76 1018.1
20220125201013 55 103 1.0 4.0 0.00 0.51 0.00 75 1018.1
20220125200507 55 103 0.0 4.0 0.00 0.51 0.00 76 1018.0
20220125200001 54 103 1.0 4.0 0.00 0.53 0.00 76 1018.2
20220125195454 54 103 1.0 4.0 0.00 0.55 0.00 77 1018.2
20220125194949 54 103 2.0 6.0 0.00 0.56 0.00 77 1018.2
20220125194443 53 103 2.0 6.0 0.00 0.57 0.00 77 1018.3
20220125193937 53 103 1.0 7.0 0.00 0.58 0.00 78 1018.2
20220125193431 53 103 1.0 7.0 0.00 0.59 0.00 78 1018.3
20220125192925 53 104 0.0 4.0 0.00 0.60 0.00 79 1018.3
20220125192419 53 103 0.0 4.0 0.00 0.60 0.00 81 1018.3
20220125191912 52 103 0.0 4.0 0.00 0.61 0.00 82 1018.4
20220125191407 51 103 0.0 3.0 0.00 0.62 0.00 83 1018.5
20220125190901 51 103 0.0 3.0 0.00 0.62 0.00 83 1018.6
20220125190354 51 104 0.0 3.0 0.00 0.62 0.00 83 1018.7
20220125185849 51 104 0.0 2.0 0.00 0.62 0.00 83 1018.8
20220125185342 51 104 0.0 2.0 0.00 0.62 0.00 84 1018.9
20220125184836 50 104 1.0 3.0 0.00 0.62 0.00 83 1019.0
20220125184330 50 104 1.0 3.0 0.00 0.63 0.00 83 1018.9
20220125183824 50 104 1.0 4.0 0.00 0.63 0.00 83 1019.0
20220125183319 50 104 1.0 8.0 0.00 0.64 0.00 83 1019.1
20220125182813 50 103 1.0 8.0 0.00 0.64 0.00 83 1019.1
20220125182307 50 103 1.0 7.0 0.00 0.64 0.00 84 1019.2
20220125181801 50 103 1.0 3.0 0.00 0.65 0.00 85 1019.1
20220125181255 50 103 0.0 3.0 0.00 0.65 0.00 86 1019.2
20220125180748 50 104 1.0 4.0 0.00 0.65 0.00 86 1019.3
20220125180242 50 105 1.0 4.0 0.00 0.66 0.00 86 1019.4
20220125175738 49 103 1.0 3.0 0.00 0.66 0.00 87 1019.4
20220125175230 49 103 0.0 3.0 0.00 0.66 0.00 87 1019.4
20220125174725 49 104 0.0 3.0 0.00 0.67 0.00 88 1019.4
20220125174219 49 103 1.0 4.0 0.00 0.68 0.00 89 1019.3
20220125173712 49 104 1.0 4.0 0.00 0.69 0.00 89 1019.4
20220125173207 49 103 1.0 3.0 0.00 0.70 0.00 89 1019.4
20220125172700 49 104 1.0 3.0 0.00 0.71 0.00 90 1019.4
20220125172155 49 104 0.0 2.0 0.00 0.72 0.00 90 1019.3
20220125171648 49 104 1.0 4.0 0.00 0.73 0.00 90 1019.3
20220125171142 49 103 1.0 6.0 0.00 0.74 0.00 90 1019.3
20220125170636 49 103 1.0 6.0 0.00 0.74 0.00 90 1019.2
20220125170131 49 104 0.0 3.0 0.00 0.74 0.00 90 1019.2
20220125165624 49 103 1.0 4.0 0.00 0.74 0.00 90 1019.2
20220125165118 49 104 1.0 6.0 0.00 0.74 0.00 90 1019.2
20220125164613 49 103 1.0 6.0 0.00 0.74 0.00 90 1019.2
20220125164108 49 103 1.0 7.0 0.00 0.74 0.00 90 1019.1
20220125163600 49 104 1.0 7.0 0.00 0.74 0.00 91 1019.0
20220125163055 49 104 1.0 6.0 0.00 0.74 0.00 90 1018.9
20220125162549 49 103 1.0 6.0 0.00 0.74 0.00 91 1018.9
20220125162042 49 104 1.0 7.0 0.00 0.74 0.00 91 1018.8
20220125161537 49 103 1.0 7.0 0.00 0.74 0.00 91 1018.8
20220125161030 49 104 1.0 4.0 0.00 0.74 0.00 91 1018.7
20220125160525 49 103 1.0 4.0 0.00 0.74 0.00 92 1018.6
20220125160019 49 103 2.0 4.0 0.00 0.74 0.00 92 1018.6
20220125155515 49 104 2.0 4.0 0.00 0.74 0.00 92 1018.5
20220125155006 48 103 1.0 3.0 0.00 0.74 0.00 93 1018.4
20220125154501 48 104 1.0 3.0 0.00 0.74 0.00 93 1018.3
20220125153954 48 104 1.0 3.0 0.00 0.74 0.00 93 1018.3
20220125153448 48 103 0.0 2.0 0.00 0.74 0.00 93 1018.3
20220125152943 48 103 1.0 3.0 0.00 0.74 0.00 93 1018.2
20220125152439 48 105 1.0 3.0 0.00 0.74 0.00 93 1018.3
20220125151931 48 103 1.0 6.0 0.00 0.74 0.00 93 1018.1
20220125151425 48 103 1.0 6.0 0.00 0.74 0.00 93 1018.2
20220125150918 48 103 1.0 4.0 0.00 0.74 0.00 93 1018.2
20220125150412 48 103 1.0 4.0 0.00 0.74 0.00 94 1018.2
20220125145908 48 104 0.0 3.0 0.00 0.74 0.00 94 1018.1
20220125145401 48 104 1.0 4.0 0.00 0.74 0.00 94 1018.0
20220125144854 48 104 1.0 4.0 0.00 0.74 0.00 95 1018.0
20220125144348 48 103 1.0 4.0 0.00 0.74 0.00 95 1017.9
20220125143842 48 105 2.0 7.0 0.00 0.74 0.00 95 1017.9
20220125143336 48 104 2.0 7.0 0.00 0.74 0.00 95 1017.8
20220125142833 48 103 2.0 7.0 0.00 0.74 0.00 96 1017.6
20220125142332 47 103 2.0 7.0 0.00 0.74 0.00 96 1017.5
20220125141833 47 105 1.0 4.0 0.00 0.74 0.00 96 1017.5
20220125141334 47 104 1.0 4.0 0.00 0.74 0.00 96 1017.5
20220125140833 47 103 1.0 7.0 0.00 0.74 0.00 96 1017.4
20220125140333 47 103 1.0 7.0 0.00 0.74 0.00 96 1017.4
20220125135833 47 105 1.0 4.0 0.00 0.74 0.00 96 1017.2
20220125135333 47 104 1.0 4.0 0.00 0.74 0.00 96 1017.1
20220125134833 47 104 0.0 4.0 0.00 0.74 0.00 96 1017.0
20220125134330 48 103 0.0 1.0 0.00 0.74 0.00 96 1016.9
20220125133830 48 104 0.0 1.0 0.00 0.74 0.00 96 1016.9
20220125133330 48 103 0.0 1.0 0.00 0.74 0.00 96 1016.8
20220125132831 48 104 0.0 2.0 0.00 0.74 0.00 96 1016.8
20220125132330 48 103 0.0 3.0 0.00 0.74 0.00 96 1016.7
20220125131830 48 104 0.0 3.0 0.00 0.74 0.00 96 1016.6
20220125131330 48 105 0.0 1.0 0.00 0.74 0.00 96 1016.7
20220125130831 48 105 0.0 0.0 0.00 0.74 0.00 96 1016.6
20220125130327 48 105 0.0 0.0 0.00 0.74 0.00 96 1016.6
20220125125827 48 103 0.0 0.0 0.00 0.74 0.00 96 1016.5
20220125125327 48 104 0.0 0.0 0.00 0.74 0.00 96 1016.5
20220125124826 48 103 0.0 0.0 0.00 0.74 0.00 96 1016.5
20220125124327 48 104 0.0 0.0 0.00 0.74 0.00 96 1016.3
20220125123840 48 104 0.0 1.0 0.00 0.74 0.00 96 1016.2
20220125123327 48 103 0.0 1.0 0.00 0.74 0.00 96 1016.2
20220125122827 48 103 0.0 1.0 0.00 0.74 0.00 96 1016.1
20220125122328 48 104 0.0 1.0 0.00 0.74 0.00 96 1016.0
20220125121824 48 103 0.0 1.0 0.00 0.74 0.00 96 1016.0
20220125121323 48 104 0.0 1.0 0.00 0.74 0.00 96 1015.8
20220125120824 48 104 0.0 1.0 0.00 0.74 0.00 96 1015.7
20220125120323 48 103 0.0 1.0 0.00 0.74 0.00 96 1015.5
20220125115832 48 103 0.0 1.0 0.00 0.74 0.00 96 1015.5
20220125115322 48 103 0.0 1.0 0.00 0.74 0.00 96 1015.4
20220125114833 48 103 0.0 0.0 0.00 0.74 0.00 96 1015.3
20220125114322 48 105 0.0 0.0 0.00 0.74 0.00 96 1015.2
20220125113822 48 103 0.0 0.0 0.00 0.74 0.00 96 1015.1
20220125113322 48 104 0.0 0.0 0.00 0.74 0.00 96 1014.8
20220125112829 48 105 0.0 0.0 0.00 0.74 0.00 96 1014.7
20220125112325 48 104 0.0 0.0 0.00 0.74 0.00 96 1014.7
20220125111823 48 103 0.0 0.0 0.00 0.74 0.00 96 1014.7
20220125111336 48 103 0.0 0.0 0.00 0.74 0.00 96 1014.7
20220125110823 48 103 0.0 0.0 0.00 0.74 0.00 96 1014.7
20220125110323 48 105 0.0 0.0 0.00 0.74 0.00 96 1014.6
20220125105822 48 103 0.0 0.0 0.00 0.74 0.00 96 1014.6
20220125105323 48 105 0.0 0.0 0.00 0.74 0.00 96 1014.6
20220125104816 48 103 0.0 0.0 0.00 0.74 0.00 96 1014.5
20220125104327 48 103 0.0 0.0 0.00 0.74 0.00 96 1014.4
20220125103816 48 103 0.0 0.0 0.00 0.74 0.00 96 1014.3
20220125103314 48 103 0.0 0.0 0.00 0.74 0.00 96 1014.2
20220125102814 47 104 0.0 0.0 0.00 0.74 0.00 96 1014.1
20220125102314 47 104 0.0 1.0 0.00 0.74 0.00 96 1014.0
20220125101813 47 104 0.0 1.0 0.00 0.74 0.00 96 1013.9
20220125101313 47 104 0.0 0.0 0.00 0.74 0.00 96 1013.9
20220125100812 47 103 0.0 0.0 0.00 0.74 0.00 96 1013.8
20220125100312 47 104 0.0 0.0 0.00 0.74 0.00 96 1013.8
20220125095812 47 103 0.0 0.0 0.00 0.74 0.00 96 1013.8
20220125095310 47 104 0.0 0.0 0.00 0.74 0.00 96 1013.7
20220125094810 47 103 0.0 0.0 0.00 0.74 0.00 96 1013.7
20220125094315 47 105 0.0 0.0 0.00 0.74 0.00 96 1013.7
20220125093810 47 104 0.0 0.0 0.00 0.74 0.00 96 1013.8
20220125093308 47 103 0.0 0.0 0.00 0.74 0.00 96 1013.8
20220125092808 47 104 0.0 0.0 0.00 0.74 0.00 96 1013.7
20220125092307 47 103 0.0 0.0 0.00 0.74 0.00 96 1013.7
20220125091800 47 105 0.0 0.0 0.00 0.74 0.00 96 1013.6
20220125091254 47 103 0.0 0.0 0.00 0.74 0.00 96 1013.6
20220125090748 47 103 0.0 0.0 0.00 0.74 0.00 96 1013.6
20220125090242 47 104 0.0 0.0 0.00 0.74 0.00 96 1013.6
20220125085736 47 103 0.0 0.0 0.00 0.74 0.00 96 1013.6
20220125085230 47 104 0.0 0.0 0.00 0.74 0.00 96 1013.6
20220125084724 47 104 0.0 0.0 0.00 0.74 0.00 96 1013.6
20220125084223 47 103 0.0 0.0 0.00 0.74 0.00 96 1013.4
20220125083712 47 103 0.0 0.0 0.00 0.74 0.00 96 1013.6
20220125083205 47 103 0.0 0.0 0.00 0.74 0.00 96 1013.5
20220125082659 47 103 0.0 0.0 0.00 0.74 0.00 96 1013.2
20220125082153 47 103 0.0 0.0 0.00 0.74 0.00 96 1013.2
20220125081647 47 105 0.0 1.0 0.00 0.74 0.00 96 1013.0
20220125081147 47 104 0.0 1.0 0.00 0.74 0.00 96 1012.9
20220125080636 47 103 0.0 1.0 0.00 0.74 0.00 96 1012.7
20220125080129 47 104 0.0 0.0 0.00 0.74 0.00 96 1012.7
20220125075623 47 104 0.0 0.0 0.00 0.74 0.00 96 1012.6
20220125075118 47 104 0.0 0.0 0.00 0.74 0.00 96 1012.6
20220125074615 47 103 0.0 0.0 0.00 0.74 0.00 96 1012.4
20220125074111 47 103 0.0 0.0 0.00 0.74 0.00 96 1012.5
20220125073606 47 103 0.0 0.0 0.00 0.74 0.00 96 1012.4
20220125073102 47 104 0.0 0.0 0.00 0.74 0.00 96 1012.5
20220125072552 47 103 0.0 0.0 0.00 0.74 0.00 96 1012.5
20220125072041 48 103 0.0 1.0 0.00 0.74 0.00 96 1012.4
20220125071536 48 104 0.0 1.0 0.00 0.74 0.00 96 1012.2
20220125071030 48 104 0.0 1.0 0.00 0.74 0.00 96 1012.2
20220125070524 48 103 0.0 1.0 0.00 0.74 0.00 96 1012.2
20220125070018 48 103 0.0 1.0 0.00 0.74 0.00 96 1012.2
20220125065512 48 104 0.0 1.0 0.00 0.74 0.00 96 1012.3
20220125065006 48 103 0.0 0.0 0.00 0.74 0.00 96 1012.3
20220125064500 48 103 0.0 0.0 0.00 0.74 0.00 96 1012.4
20220125063954 48 103 0.0 1.0 0.00 0.74 0.00 96 1012.4
20220125063449 48 105 0.0 1.0 0.00 0.74 0.00 96 1012.4
20220125062942 48 104 0.0 0.0 0.00 0.74 0.00 96 1012.4
20220125062437 48 103 0.0 0.0 0.00 0.74 0.00 96 1012.5
20220125061929 48 103 0.0 0.0 0.00 0.74 0.00 96 1012.5
20220125061423 48 104 0.0 0.0 0.00 0.74 0.00 95 1012.6
20220125060917 48 104 0.0 0.0 0.00 0.74 0.00 95 1012.6
20220125060411 48 104 0.0 0.0 0.00 0.74 0.00 95 1012.7
20220125055907 48 103 0.0 0.0 0.00 0.74 0.74 95 1012.7
20220125055359 48 104 0.0 0.0 0.00 0.74 0.74 95 1012.8
20220125054854 48 103 0.0 0.0 0.00 0.74 0.74 95 1012.9
20220125054350 48 105 0.0 0.0 0.01 0.74 0.74 95 1012.9
20220125053841 48 104 0.0 0.0 0.01 0.74 0.74 95 1013.0
20220125053336 48 103 0.0 0.0 0.01 0.74 0.74 95 1013.1